Regional Weather Roundup
Issued by NWS

Home | Current Version | Previous Version | Text Only | Print | Product List | Glossary Off
Versions: 1 2 3 4 5 6 7 8 9 10 11 12 13 14 15 16 17 18 19 20 21 22 23 24 25 26 27 28 29 30 31 32 33 34 35 36 37 38 39 40 41 42 43 44 45 46 47 48 49 50

000
ASUS43 KOAX 232210
RWRNE

WEATHER ROUNDUP FOR NEBRASKA
NATIONAL WEATHER SERVICE OMAHA NE
500 PM CDT TUE MAY 23 2017

NOTES: SATELLITE DATA IS BEING USED TO AUGMENT CLOUD COVER ABOVE
       12000 FEET.
       "FAIR" INDICATES FEW OR NO CLOUDS BELOW 12,000 FEET WITH NO
       SIGNIFICANT WEATHER AND/OR OBSTRUCTIONS TO VISIBILITY.

  * THESE STATIONS DO NOT REPORT WEATHER SUCH AS RAIN...SNOW OR FOG.

NEZ001>004-019>022-054>056-232300-
NEBRASKA PANHANDLE

CITY           SKY/WX    TMP DP  RH WIND       PRES   REMARKS
SCOTTSBLUFF    PTSUNNY   66  33  29 N18G35    30.06F
ALLIANCE       PTSUNNY   59  35  40 N20       30.05F
CHADRON        MOSUNNY   61  38  42 N16G22    30.06F
GORDON         CLOUDY    59  36  43 N22       30.05F
KIMBALL        CLOUDY    61  31  32 N22G30    30.10F
SIDNEY         PTSUNNY   58  37  45 N17G29    30.07F
$$

NEZ057>060-069>072-079>082-232300-
SOUTHWEST NEBRASKA

CITY           SKY/WX    TMP DP  RH WIND       PRES   REMARKS
NORTH PLATTE   CLOUDY    57  37  47 N20G29    30.00F
IMPERIAL       CLOUDY    60  33  36 N17G32    30.02F
LEXINGTON      CLOUDY    55  40  56 N22G32    29.98F
MCCOOK         CLOUDY    61  35  37 N35G43    29.99S
OGALLALA       MOSUNNY   63  33  32 N16G28    30.03F
$$

NEZ005>010-023>029-035>040-094-232300-
NORTH CENTRAL NEBRASKA

CITY           SKY/WX    TMP DP  RH WIND       PRES   REMARKS
VALENTINE      CLOUDY    57  37  47 N17G28    30.00S
AINSWORTH      CLOUDY    54  42  65 N17G25    29.98F
BROKEN BOW     CLOUDY    56  39  53 N25G37    29.96F
O`NEILL        CLOUDY    52  41  66 NW20      29.95F
ORD            PTSUNNY   54  39  57 N28G35    29.94S
THEDFORD       CLOUDY    56  37  48 N15G32    30.01S
$$

NEZ041-046>049-061>064-073>077-083>087-232300-
SOUTH CENTRAL NEBRASKA

CITY           SKY/WX    TMP DP  RH WIND       PRES   REMARKS
GRAND ISLAND   CLOUDY    55  41  59 N21       29.93F
AURORA         PTSUNNY   55  40  56 N22G31    29.92S
HASTINGS       CLOUDY    55  40  56 NW22G29   29.94S
HEBRON         CLOUDY    57  44  61 N24G32    29.90S
HOLDREGE       CLOUDY    54  39  57 N21G30    29.97S
KEARNEY *      CLOUDY    57  39  51 N21G26    29.95F
YORK           CLOUDY    54  41  62 N18G24    29.90F
$$

NEZ011>018-030>034-042>045-232300-
NORTHEAST NEBRASKA

CITY           SKY/WX    TMP DP  RH WIND       PRES   REMARKS
NORFOLK        CLOUDY    56  43  61 NW22G29   29.87F
ALBION         CLOUDY    56  41  57 NW15G23   29.91S
BLAIR          CLOUDY    57  46  65 NW12G20   29.83F
FREMONT        CLOUDY    58  47  66 NW12      29.86S
TEKAMAH        LGT RAIN  55  47  74 N9        29.83F
WAYNE          CLOUDY    56  44  65 NW18G28   29.86F
$$

NEZ050>053-065>068-078-088>093-232300-
SOUTHEAST NEBRASKA

CITY           SKY/WX    TMP DP  RH WIND       PRES   REMARKS
LINCOLN        CLOUDY    59  44  57 NW22      29.87F
OMAHA EPPLEY   PTSUNNY   57  44  62 NW14G25   29.83F
BEATRICE       CLOUDY    58  45  62 N20G25    29.87S
FALLS CITY     CLOUDY    58  46  64 NW14G25   29.82F
NEBRASKA CITY  CLOUDY    61  40  47 N14G20    29.83F
PLATTSMOUTH    CLOUDY    55  47  76 NW8       29.84S
$$

NEZ044-045-051>053-067-232300-
OMAHA AREA

CITY           SKY/WX    TMP DP  RH WIND       PRES   REMARKS
OMAHA EPPLEY   PTSUNNY   57  44  62 NW14G25   29.83F
BLAIR          CLOUDY    57  46  65 NW12G20   29.83F
FREMONT        CLOUDY    58  47  66 NW12      29.86S
MILLARD        CLOUDY    58  46  64 NW12G17   29.84S
OFFUTT AFB     CLOUDY    58  44  60 NW12      29.82F
PLATTSMOUTH    CLOUDY    55  47  76 NW8       29.84S
WAHOO          CLOUDY    53  47  81 NW12      29.86F
$$




USA.gov is the U.S. government's official web portal to all federal, state and local government web resources and services.